GEFSSE_500_meanwind_120.txt.gz
Wind_Speed
5 6 5 5 5 4 3 3 3 2 2 2 3 3 4 4 4 4 4 5 5 5 5 5 5 5 5 5 5 5 5 5 5 5 5 5 6 6 7 8 9 9 9
6 7 6 6 6 5 5 4 4 3 3 3 3 3 3 4 4 3 3 3 3 4 4 4 4 4 4 4 4 4 4 4 4 4 4 4 5 6 6 7 8 9 9
7 7 7 7 6 6 6 5 5 5 4 4 4 3 3 3 3 3 2 2 2 2 2 2 3 2 3 3 3 3 3 3 3 3 3 3 3 4 5 6 7 7 7
8 8 8 8 7 7 6 6 6 6 5 5 4 4 4 3 3 2 2 1 1 1 1 1 1 1 1 1 1 1 1 2 2 2 2 3 3 3 3 4 6 6 5
10 10 10 10 9 8 7 6 6 6 6 6 5 5 4 4 3 3 2 1 1 1 1 1 1 1 1 1 0 1 1 1 1 0 1 1 1 2 3 3 4 4 4
11 11 11 11 9 8 8 7 7 7 7 6 6 6 5 5 4 3 3 2 2 2 2 2 2 2 2 2 2 2 1 1 1 1 1 0 0 1 1 2 3 3 3
12 12 12 11 10 9 9 9 9 8 8 7 7 7 6 6 5 4 4 4 4 4 4 3 3 4 4 4 3 3 3 2 2 2 2 2 1 1 1 1 2 3 2
13 13 14 13 12 11 10 10 10 10 9 9 9 8 7 7 6 6 5 5 5 5 5 5 5 5 5 5 5 5 5 4 4 4 4 4 3 3 2 2 3 2 2
16 15 16 14 13 12 12 12 11 11 11 11 10 9 8 8 8 7 7 7 7 7 6 6 6 6 6 6 6 6 6 5 5 4 5 5 5 4 4 3 4 4 3
16 16 16 16 14 14 13 13 12 12 12 12 12 11 10 9 9 8 8 8 8 8 7 7 7 7 7 7 7 7 7 6 6 6 6 6 6 6 6 5 6 6 5
16 17 17 16 15 15 15 14 13 13 13 13 13 12 11 10 9 9 9 9 9 9 9 8 8 9 8 8 7 7 7 6 5 7 6 6 7 7 7 7 7 7 7
18 18 18 18 17 16 16 16 15 15 14 13 13 12 10 10 9 9 9 9 9 9 10 9 9 9 9 9 9 8 8 7 7 8 7 7 7 8 8 9 9 9 8
21 19 19 19 18 17 17 17 16 15 14 12 12 12 10 10 9 9 9 8 9 9 9 9 9 9 8 8 9 9 9 9 7 8 9 9 8 9 9 9 10 11 11
22 21 21 20 19 18 18 17 16 15 14 13 11 11 11 11 10 9 9 9 9 8 8 8 8 8 8 8 9 9 10 10 9 8 9 10 10 9 10 11 11 11 12
24 23 23 22 20 19 18 18 16 15 14 13 11 11 11 10 10 9 8 7 7 7 7 8 6 6 7 7 8 8 9 10 11 9 10 11 11 11 11 12 12 12 13
25 23 21 21 21 20 19 17 16 15 13 12 12 11 9 9 9 7 6 6 5 5 5 4 5 6 6 6 6 7 8 9 10 11 11 12 13 13 13 13 13 14 14
23 23 21 21 20 19 18 17 15 14 13 12 12 11 9 8 6 5 4 4 4 4 4 4 4 4 4 4 4 5 6 7 9 10 11 12 12 13 13 14 14 15 16
21 22 22 21 21 19 18 17 15 14 12 11 11 10 8 7 5 4 4 4 3 3 2 3 3 3 4 4 4 5 6 7 9 10 11 12 12 14 14 15 15 16 17
19 20 21 21 21 20 18 16 14 13 11 11 10 9 8 6 5 4 4 3 2 2 2 2 2 3 4 4 5 6 7 7 9 10 10 11 12 13 14 15 16 17 17
17 17 19 20 20 19 17 15 14 12 11 11 10 8 7 6 5 5 4 3 2 2 2 2 3 3 4 5 6 7 7 8 9 9 10 11 12 13 14 15 16 16 17
12 13 16 17 17 16 15 14 13 12 11 10 9 8 7 6 6 5 3 1 0 1 2 2 3 4 5 6 6 7 8 8 9 10 10 11 12 13 14 14 15 16 17
11 13 14 15 16 15 14 13 12 11 10 9 8 8 7 6 5 3 2 1 0 1 2 3 3 4 5 6 7 7 8 8 9 10 11 11 12 13 14 15 16 17 18
9 12 13 13 14 14 14 12 11 10 8 8 7 8 7 5 4 4 3 1 0 1 2 3 4 5 6 7 7 8 9 9 9 10 11 12 13 14 15 16 16 17 18
7 11 13 13 14 14 13 12 10 8 8 8 7 7 7 5 5 4 2 1 0 2 3 3 4 6 7 8 8 9 10 11 11 11 12 13 14 15 15 16 17 17 18
6 9 11 13 13 13 12 11 10 9 9 8 8 7 7 6 6 4 2 1 1 2 3 4 5 7 7 8 9 10 11 12 12 13 13 14 14 15 16 17 18 18 19
5 7 9 11 12 12 12 12 12 11 10 9 8 7 7 6 5 4 2 1 2 3 4 5 6 7 8 9 10 11 12 13 14 15 15 16 16 16 17 18 19 19 20

GEFSSE_500_meanwind_126.txt.gz
Wind_Speed
3 4 4 4 4 4 3 1 0 1 1 2 2 1 0 0 1 2 2 2 2 2 3 3 4 4 4 5 5 5 5 6 6 7 7 7 7 7 8 9 10 10 9
4 4 5 5 5 5 4 2 1 1 2 2 2 2 1 1 0 1 1 1 2 2 2 2 2 2 3 4 4 4 5 5 5 5 6 7 7 8 8 9 10 9 9
4 5 5 6 6 6 5 3 2 2 2 2 3 3 2 2 1 1 1 2 2 2 2 2 1 2 2 2 3 3 3 4 4 5 5 6 7 7 7 8 9 9 9
5 5 5 6 6 6 6 5 3 3 3 2 3 3 3 2 2 2 2 2 3 2 2 2 2 1 1 1 2 2 2 2 3 4 5 5 6 6 7 8 8 8 8
6 6 6 7 7 7 7 6 5 4 3 3 3 3 3 3 3 3 3 3 3 3 3 3 3 2 2 1 1 2 2 2 2 3 3 4 4 5 6 7 7 7 7
6 6 6 7 8 8 8 7 6 5 4 4 4 4 4 4 4 4 4 4 4 5 5 4 4 3 3 2 2 2 1 2 2 2 2 3 3 4 5 6 6 6 6
6 7 8 8 8 9 9 8 8 6 6 5 5 5 5 5 5 5 6 5 5 6 6 5 5 4 4 3 3 2 2 2 1 0 1 2 3 4 4 5 5 5 5
7 8 9 9 9 9 10 10 9 8 7 7 6 6 6 6 6 7 7 7 7 7 7 6 5 5 5 4 3 3 3 3 2 1 1 2 3 3 3 4 4 4 4
9 9 10 10 11 11 11 11 10 9 8 8 8 7 6 6 7 8 8 8 8 8 8 7 6 6 6 5 4 3 3 3 3 3 2 2 2 3 3 3 3 3 4
12 11 11 12 12 12 12 12 11 10 10 9 8 8 8 8 8 8 8 8 9 8 8 7 7 7 7 6 5 4 4 3 3 3 2 2 2 3 3 3 3 3 3
13 13 14 13 13 13 13 13 12 11 11 10 9 9 9 9 9 9 9 9 8 8 8 7 8 8 7 6 5 4 4 4 3 3 3 2 2 3 4 4 4 4 4
14 14 15 15 14 14 14 13 13 12 11 11 10 9 9 9 9 9 9 9 9 8 8 8 8 8 8 6 6 5 5 5 4 4 3 4 3 3 4 4 5 5 5
15 16 16 16 15 15 15 14 14 12 11 10 10 10 10 9 9 9 9 9 9 8 8 8 8 7 7 6 6 5 6 6 6 5 4 4 4 5 4 5 5 6 6
14 16 16 16 16 17 16 14 14 13 11 10 10 9 9 9 9 8 8 8 8 8 7 7 6 6 5 5 5 4 5 7 6 6 6 5 5 6 6 6 7 7 7
17 17 17 17 17 17 17 15 14 13 12 11 11 10 9 9 8 7 7 7 7 7 7 6 6 5 5 5 4 4 4 5 6 7 7 7 6 6 7 7 8 8 9
18 18 18 18 19 18 18 17 15 14 13 12 11 11 9 8 8 7 6 5 5 5 5 5 5 4 4 4 3 3 3 4 5 6 7 7 7 7 7 8 8 9 9
17 18 19 19 20 18 17 17 16 15 14 13 11 11 10 8 8 7 6 5 5 5 4 4 4 4 3 3 3 3 3 3 3 5 6 6 7 7 8 8 9 9 10
16 18 19 19 19 19 17 16 15 15 14 13 13 11 10 9 9 8 7 6 6 5 4 3 3 3 3 3 3 2 2 3 3 4 5 6 6 7 8 8 9 9 9
15 18 19 19 18 18 18 17 16 15 14 14 13 12 11 10 9 8 7 6 6 5 4 4 3 2 2 2 2 2 2 3 3 4 4 5 6 7 7 8 8 9 10
15 17 19 20 19 17 17 17 16 16 14 13 12 11 11 10 10 9 7 7 6 5 5 4 3 2 1 1 1 2 2 2 3 3 4 4 5 6 6 7 7 8 9
13 16 16 19 19 17 17 17 17 16 14 13 12 11 12 11 10 9 8 7 6 6 5 5 4 2 2 1 1 1 2 2 2 3 4 4 5 5 6 7 7 8 9
11 13 14 15 17 17 17 17 17 16 14 13 13 12 12 11 10 9 9 8 7 6 6 5 4 3 2 2 1 1 1 2 3 3 4 4 4 5 6 7 8 9 9
9 11 12 12 16 17 18 18 17 15 14 13 13 12 12 12 11 10 10 9 8 7 6 5 5 4 2 1 1 0 1 2 4 4 5 5 5 6 7 7 8 9 10
6 8 10 12 14 16 17 17 16 15 15 14 14 13 13 13 12 11 11 10 8 7 6 6 5 4 2 1 1 1 1 2 3 4 5 6 7 7 7 8 9 9 10
5 7 11 12 14 15 17 17 17 16 15 13 15 14 13 13 13 12 11 10 9 7 7 6 5 3 2 1 1 1 2 3 4 5 5 6 7 8 8 9 9 10 11
7 8 11 12 14 15 16 17 16 16 14 14 15 14 14 13 13 12 11 9 8 7 6 5 4 3 2 2 2 3 4 5 5 6 7 7 8 9 9 10 11 11 12

GEFSSE_500_meanwind_132.txt.gz
Wind_Speed
2 3 4 4 4 5 5 6 7 7 6 6 6 6 5 5 5 6 6 6 6 6 6 6 6 6 6 6 6 6 6 6 6 7 7 7 8 8 8 9 9 10 10
4 4 4 5 5 4 5 5 6 6 6 5 5 5 5 5 5 5 6 6 6 6 6 6 6 6 6 6 6 6 6 5 6 6 7 7 7 7 8 9 9 10 9
5 5 5 5 5 5 4 5 5 5 5 5 4 4 4 4 4 4 5 5 6 6 6 6 6 5 5 5 6 5 4 5 5 6 6 6 6 7 8 8 9 9 9
5 6 6 6 6 6 5 5 5 5 5 4 3 3 3 3 3 4 4 5 6 6 6 6 5 5 5 5 5 5 4 4 4 5 5 5 5 6 7 8 8 8 8
5 6 6 7 7 6 6 6 5 5 5 3 3 2 2 3 3 4 4 5 5 6 6 5 5 5 5 4 4 4 4 4 4 4 4 4 5 5 6 7 7 7 8
7 7 7 7 7 7 7 7 6 6 5 3 2 1 1 2 2 3 4 4 5 5 5 5 4 4 4 4 4 3 4 4 4 3 4 4 4 5 6 6 6 6 7
8 8 8 8 8 8 7 7 7 6 5 4 3 2 0 1 1 2 3 4 5 5 5 5 4 3 3 3 3 2 2 3 3 3 3 3 4 4 5 5 5 5 5
8 10 10 9 9 9 9 8 7 7 6 4 3 2 1 1 2 3 3 4 5 5 5 5 4 3 3 2 3 2 2 2 1 2 2 3 3 4 4 4 4 4 4
10 11 11 11 10 10 9 9 9 8 6 5 4 3 3 3 3 3 4 4 5 5 5 4 3 2 2 2 2 1 1 1 1 1 1 2 3 3 4 4 4 4 4
10 11 12 13 12 11 10 10 9 9 7 6 5 4 4 4 4 4 4 5 5 5 4 3 3 2 2 2 2 1 1 0 0 1 2 2 3 3 3 4 4 4 4
11 12 13 14 13 13 12 11 10 10 8 7 6 5 5 5 5 5 5 6 5 5 4 4 3 3 2 2 3 3 2 1 1 1 2 2 3 3 3 4 4 5 5
13 14 15 14 14 14 13 12 12 11 9 8 7 6 6 6 6 6 6 6 6 5 5 4 3 3 3 3 3 3 3 3 2 2 2 2 3 4 4 4 5 6 6
14 15 17 16 16 15 14 14 13 12 11 9 8 7 7 7 7 7 6 6 6 6 5 4 4 3 3 3 3 3 3 3 3 3 3 2 3 4 5 5 5 6 6
15 16 18 19 18 17 16 16 15 14 12 11 9 8 8 7 7 7 6 6 6 5 5 4 3 3 2 2 2 3 3 3 4 4 4 3 4 4 5 6 7 7 7
13 14 16 18 19 18 17 17 16 15 14 12 11 10 8 8 7 6 6 6 6 5 4 3 3 3 2 2 2 2 3 3 4 4 5 5 5 5 5 7 8 9 9
12 13 14 17 20 20 19 18 17 16 14 13 11 11 9 8 7 6 6 5 5 5 4 3 3 3 3 2 2 3 3 3 4 4 5 5 5 6 6 7 8 8 9
11 12 14 17 19 21 20 19 19 17 16 14 12 11 10 9 9 7 6 5 5 4 4 3 3 3 3 3 3 2 2 3 3 3 4 4 5 5 6 7 7 8 9
13 14 16 17 19 21 20 21 20 18 17 16 14 12 11 10 10 9 8 6 6 5 4 3 3 3 3 3 2 2 2 3 3 3 3 4 4 5 6 6 6 7 8
15 15 16 17 19 21 22 21 20 19 17 17 16 14 12 12 11 10 9 8 7 6 5 4 3 3 3 3 2 2 2 3 3 3 3 3 4 4 5 5 6 7 7
15 15 17 17 19 22 23 22 20 19 19 17 16 15 14 13 12 11 10 9 8 6 6 5 4 4 3 3 3 3 3 2 2 2 2 3 3 4 4 5 6 6 7
13 14 17 18 20 22 22 22 21 20 19 18 17 16 14 13 13 12 11 10 9 8 7 6 5 5 4 3 3 3 2 2 1 1 1 2 3 3 4 4 5 6 7
12 13 15 18 20 22 22 22 21 21 20 19 17 16 15 14 14 13 12 11 10 9 8 7 6 5 5 4 3 3 2 2 2 2 2 2 3 4 4 4 5 6 6
11 13 13 16 20 21 21 22 22 21 20 19 18 17 16 15 15 14 13 12 10 9 8 8 7 6 5 4 3 2 2 2 2 2 3 3 4 4 5 5 6 6 7
10 12 13 17 19 20 20 21 22 22 20 19 19 18 17 16 16 16 14 13 11 10 9 8 8 7 6 5 4 3 3 2 2 3 4 4 5 5 5 6 7 7 8
8 11 14 17 19 20 20 20 22 22 21 20 20 19 17 17 17 16 15 14 13 11 10 9 8 7 6 5 5 4 4 4 4 4 5 5 6 6 7 7 8 9 9
6 9 12 15 17 19 20 21 22 22 21 20 19 18 18 17 17 16 15 14 13 12 10 9 8 7 7 6 6 5 5 5 6 6 6 6 7 7 8 9 9 10 11

GEFSSE_500_meanwind_138.txt.gz
Wind_Speed
5 6 7 7 7 7 7 7 8 9 10 10 11 11 11 10 10 10 10 10 9 9 9 8 8 7 7 7 7 6 6 6 6 6 7 7 7 7 8 8 8 8 8
4 6 7 7 7 7 7 7 8 9 10 10 10 10 10 10 10 10 10 9 9 8 8 8 7 7 6 6 6 6 6 6 6 6 6 7 7 7 8 8 8 8 7
4 6 7 7 7 8 8 7 8 9 9 10 10 10 9 9 9 9 9 8 8 8 7 7 7 6 6 6 6 6 6 6 6 6 6 6 6 7 7 7 7 7 7
5 6 7 7 7 8 8 8 8 9 9 10 10 9 9 9 8 8 8 7 7 7 6 6 6 6 5 5 5 5 6 6 6 6 6 6 6 7 7 7 7 7 7
6 7 7 7 7 8 8 8 9 9 9 10 10 9 9 8 8 8 7 7 7 6 5 5 5 5 5 5 5 5 5 6 5 5 5 6 6 7 6 6 6 6 6
7 8 8 8 8 8 9 9 9 9 9 9 9 9 8 8 7 7 6 6 6 5 4 4 4 4 4 4 4 4 4 5 5 5 5 5 6 6 6 5 5 6 5
8 9 9 9 9 9 9 9 10 10 10 9 9 8 7 7 6 6 5 5 4 4 3 3 3 4 4 4 4 4 4 4 4 5 5 5 6 6 6 6 5 5 4
9 10 10 10 10 10 10 10 10 10 10 10 9 8 7 7 6 5 5 4 3 3 3 3 3 4 4 3 4 4 4 4 4 5 5 5 6 7 7 6 5 5 4
9 10 11 11 11 11 11 11 11 11 10 10 9 8 7 6 6 5 4 3 3 3 2 2 3 3 4 3 3 3 3 3 4 5 5 5 6 7 6 6 6 5 4
9 10 12 13 12 13 13 12 12 11 11 10 9 8 7 6 6 5 4 3 3 2 2 3 3 3 4 3 3 3 3 4 4 5 4 5 6 6 6 6 6 5 5
9 11 12 13 13 13 14 13 13 13 12 11 10 9 8 7 6 5 4 3 3 3 2 3 2 3 4 3 3 3 3 4 5 5 4 4 5 6 6 6 6 6 6
10 11 13 14 14 14 15 15 14 14 13 12 11 10 8 7 7 6 4 4 4 3 2 2 3 3 4 3 3 3 4 4 4 5 5 5 5 5 6 6 6 6 6
10 12 14 15 16 17 16 16 15 15 14 13 12 11 9 8 7 6 5 5 4 3 3 3 3 3 3 3 4 3 4 4 4 4 5 5 5 6 6 6 6 6 6
11 13 15 16 18 19 18 17 16 15 15 14 13 12 10 9 8 7 6 6 5 4 3 3 4 4 4 4 4 4 4 4 4 5 5 5 5 6 6 7 7 7 7
12 13 15 15 18 20 20 19 18 17 16 15 14 13 11 9 8 7 6 6 6 5 4 4 5 4 4 3 3 4 4 4 5 5 5 5 6 6 6 7 7 8 8
12 12 15 15 18 20 21 21 21 20 18 17 15 14 12 10 9 7 6 6 6 6 5 5 5 5 4 4 3 4 4 4 5 5 5 5 6 6 6 7 7 8 8
12 13 14 15 17 20 21 22 22 22 20 19 17 15 13 11 10 9 7 7 6 6 6 6 5 5 5 4 4 4 4 4 4 4 5 5 5 5 6 7 7 7 7
13 14 15 16 17 20 22 22 22 22 21 20 18 16 14 12 11 10 9 8 8 7 7 7 6 6 5 5 5 5 4 4 4 4 4 4 4 5 5 6 6 6 6
15 16 17 19 18 21 23 24 23 22 21 20 19 17 15 14 12 11 10 9 9 8 8 8 7 6 6 6 5 5 4 4 4 4 3 3 4 4 4 4 5 5 6
17 17 18 19 21 22 25 25 24 23 21 21 20 18 17 15 13 12 11 11 10 9 8 8 7 6 6 6 6 5 4 4 4 3 3 3 3 3 3 4 4 5 6
18 18 18 20 21 22 24 25 25 24 22 21 20 19 18 16 14 13 12 11 11 10 9 8 8 7 6 6 6 5 5 4 4 4 3 3 2 3 3 4 5 5 6
17 17 18 19 22 22 23 25 26 25 24 23 21 20 19 17 15 14 13 12 12 11 10 9 9 8 7 6 6 6 5 4 4 3 3 3 3 4 4 5 5 6 6
15 16 17 18 19 22 24 25 27 26 25 23 22 22 20 18 17 16 14 13 13 12 11 10 9 9 8 7 7 6 5 5 4 4 4 4 4 4 5 5 6 6 6
12 14 15 17 19 21 22 25 26 26 24 23 23 22 21 19 18 17 15 15 14 13 12 12 11 9 9 8 7 7 6 5 5 5 4 5 5 6 6 6 6 7 7
11 11 13 16 18 19 21 23 25 25 25 24 23 22 21 19 18 17 16 15 14 13 13 12 11 10 10 9 8 7 7 6 6 6 5 6 6 7 7 7 8 8 9
9 10 12 14 16 18 21 24 25 24 24 24 23 22 20 20 19 18 16 15 14 14 13 13 12 11 10 10 9 8 8 7 7 7 7 7 7 8 8 9 9 10 10

GEFSSE_500_meanwind_144.txt.gz
Wind_Speed
4 5 6 7 7 6 6 5 5 6 6 7 7 7 7 8 8 8 7 7 7 7 7 7 7 6 6 6 6 6 6 6 6 6 6 6 7 8 8 7 7 8 8
4 5 7 7 7 6 6 6 5 6 6 6 7 7 7 7 7 7 7 7 7 7 6 6 6 5 5 5 5 5 5 5 5 6 6 6 6 7 7 7 7 7 7
5 5 6 7 8 7 7 7 6 6 6 6 6 7 7 7 7 6 6 6 6 6 6 5 5 4 4 5 5 5 5 5 5 6 5 5 6 6 7 7 7 7 7
6 5 6 7 7 8 8 7 7 7 7 7 7 6 6 6 6 6 6 5 5 5 4 4 4 4 4 4 4 4 4 5 5 5 5 5 5 6 6 6 6 6 6
7 7 7 8 8 8 8 8 7 7 7 7 7 6 6 6 6 5 5 5 5 4 3 3 3 3 3 3 3 3 3 4 4 4 4 4 5 5 5 5 5 5 5
7 7 8 8 8 8 8 8 8 8 7 7 7 7 6 6 5 5 4 4 4 3 3 2 2 2 2 2 2 2 2 3 3 3 3 3 4 4 4 4 4 4 4
7 8 9 9 9 9 9 8 9 9 8 8 8 7 6 6 5 5 4 3 3 2 2 2 2 2 1 1 1 1 2 2 2 2 2 3 3 3 3 3 3 3 4
7 8 9 10 10 10 9 9 9 9 9 9 8 7 7 6 5 5 4 3 2 2 2 2 2 2 2 1 1 1 0 1 1 1 1 2 2 2 2 2 2 2 2
7 9 10 10 10 11 11 10 10 10 9 9 9 8 8 7 6 5 4 3 3 2 2 2 2 2 2 2 1 1 1 0 0 1 1 1 1 1 1 1 1 1 1
7 8 9 10 11 11 12 12 11 11 11 10 10 9 8 8 7 6 5 4 3 3 2 2 2 2 2 2 1 1 1 0 1 1 1 1 1 1 1 1 1 1 0
8 8 9 10 12 12 13 13 13 12 12 11 11 10 9 8 8 7 6 4 3 3 3 2 3 3 2 2 1 1 1 1 1 1 1 1 2 2 2 2 2 2 2
9 9 10 11 12 13 14 15 14 13 13 13 12 11 10 9 9 8 7 5 4 3 3 3 3 3 3 2 1 1 0 0 1 1 1 2 2 2 2 2 3 4 4
10 10 11 12 13 13 15 16 15 15 15 14 13 13 11 10 9 8 7 6 5 4 4 3 4 3 3 2 2 1 1 1 2 2 3 2 2 2 2 3 3 4 4
11 11 12 13 14 14 15 17 17 16 15 15 14 14 12 11 10 9 7 6 6 5 4 4 4 4 3 3 2 2 2 2 3 3 3 3 3 3 3 3 4 4 4
12 12 12 13 14 15 15 17 17 17 17 16 15 14 13 12 10 9 8 7 6 6 5 5 5 4 4 3 2 2 2 2 2 2 2 3 3 3 3 4 4 5 5
14 13 13 14 14 15 15 16 17 17 17 16 15 15 13 12 11 10 9 7 7 6 6 5 5 4 3 3 3 2 2 2 2 2 2 2 3 3 3 4 4 4 4
15 14 14 14 15 16 16 16 17 17 17 17 16 15 14 13 12 11 10 8 7 7 6 6 5 5 4 4 3 3 2 2 2 2 2 2 2 3 3 3 3 4 5
17 16 16 15 15 16 17 17 17 17 18 18 17 16 15 14 12 11 10 9 8 7 7 6 5 5 5 4 3 3 2 2 2 2 2 2 2 2 3 3 3 4 4
18 17 17 17 16 16 17 17 18 18 19 19 18 17 16 15 13 12 10 10 8 7 7 7 6 5 5 4 4 3 2 2 2 1 1 1 2 2 3 3 3 4 4
18 18 17 17 16 16 17 17 17 18 19 19 18 18 17 15 14 12 11 11 10 9 8 7 7 6 5 5 4 3 3 2 2 2 1 1 1 2 2 3 4 4 4
19 19 18 18 17 17 17 17 17 18 19 19 19 18 18 16 15 14 12 11 11 10 9 8 8 7 6 5 5 4 3 3 2 2 2 2 2 2 2 3 4 4 5
19 19 19 18 17 17 17 17 18 18 19 20 20 19 18 17 16 14 13 12 11 11 10 9 9 8 7 7 6 5 4 3 3 3 2 1 2 2 2 3 3 4 5
17 17 17 18 18 18 18 17 17 18 19 20 20 20 19 18 17 15 14 13 12 11 11 10 9 9 8 7 7 6 5 4 3 3 2 2 2 2 3 3 3 4 4
16 16 15 17 17 17 18 17 18 20 20 20 21 21 20 19 18 16 15 15 14 12 12 11 11 10 10 9 8 7 6 5 4 3 3 3 3 3 3 4 4 5 5
15 14 14 17 17 17 18 18 19 20 20 21 21 20 20 19 18 18 17 16 15 14 13 13 12 11 11 10 9 8 7 6 5 5 4 4 4 4 5 5 5 5 6
12 13 13 15 16 16 18 19 18 19 20 20 21 20 20 19 19 19 18 17 16 15 14 13 13 12 11 10 10 9 8 7 6 5 5 5 6 6 6 6 7 7 8